Location: Newark
(30.3936°N, 76.2251°E)
Time: 20:47:19
(UTC+00:00)

N. Korean satellite - Visible Passes

Search period start: 30 September 2020 00:00
Search period end: 10 October 2020 00:00
Orbit: 455 x 503 km, 97.2° (Epoch: 29 September)

Date Brightness Start Highest point End Pass type
(mag) Time Alt. Az. Time Alt. Az. Time Alt. Az.
30 Sep 7.8 00:04:58 10° NNE 00:08:24 45° E 00:11:46 10° S visible
30 Sep 9.6 23:39:42 10° NE 23:42:17 19° E 23:44:50 10° SE visible
03 Oct 6.6 00:20:03 10° NNE 00:23:35 82° ESE 00:27:03 10° S visible
03 Oct 8.6 23:54:21 10° NE 23:57:31 31° E 00:00:37 10° SSE visible
04 Oct 9.9 23:29:35 10° ENE 23:31:20 13° E 23:33:04 10° SE visible
07 Oct 7.4 00:09:13 10° NNE 00:12:39 54° E 00:16:02 10° S visible
07 Oct 9.3 23:43:46 10° NE 23:46:31 21° E 23:49:13 10° SSE visible
09 Oct 10.8 12:55:42 10° WSW 12:56:24 10° W 12:57:06 10° W visible
